Lexington Weather

Lexington, Massachusetts, USA

34°F
4/16/2021 9:28am 
  • Lexington Conditions: Snow, Mist, Overcast
  • Temperature: 34.0°F / 1.1°CColder 3.9°F than last hour.
  • Dew Point: 32.7°FDecreased 4.0°Fsince last hour.
  • Relative Humidity: 95
  • Wind: Calm, 10-min avg: Calm, gust: None
  • Barometer: 29.48 inFalling 0.03  inHg/hr Falling Slowly
  • Visibility: ½ mile
  • Snow Today: 0.3 in
  •   

Regional Weather Roundup
for Boston / Norton, MA

        
000
ASUS41 KBOX 130904
RWRBOX

REGIONAL WEATHER ROUNDUP
NATIONAL WEATHER SERVICE BOSTON/NORTON MA
500 AM EDT TUE APR 13 2021

NOTE:  "FAIR" INDICATES FEW OR NO CLOUDS BELOW 12,000 FEET WITH NO 
SIGNIFICANT WEATHER AND/OR OBSTRUCTIONS TO VISIBILITY.

MAZALL-131000-
EASTERN MASSACHUSETTS
  
CITY           SKY/WX    TMP DP  RH WIND       PRES   REMARKS
BOSTON         CLOUDY    46  33  60 N8        29.97S                  
BEVERLY        MOCLDY    41  34  76 N8        29.96R                  
LAWRENCE       CLOUDY    43  36  76 N9        29.99R                  
BEDFORD        CLOUDY    42  33  70 N5        29.97R                  
BLUE HILL        N/A     40  33  76 N8        29.93S                  
NORWOOD        CLOUDY    44  33  65 N3        29.96S                  
MARSHFIELD     CLOUDY    46  39  76 VRB7G15   29.95R                  
PLYMOUTH       CLOUDY    44  37  76 N10       29.93S                  
TAUNTON        CLOUDY    44  36  73 VRB6      29.94S                  
NEW BEDFORD    CLOUDY    44  37  76 N6        29.93S                  
$$

MAZALL-131000-
CAPE COD AND THE ISLANDS
  
CITY           SKY/WX    TMP DP  RH WIND       PRES   REMARKS
FALMOUTH       CLOUDY    45  37  76 N10       29.92F                  
HYANNIS        CLOUDY    46  40  79 N13G21    29.90R                  
CHATHAM        CLOUDY    45  39  79 VRB7G17   29.92R                  
PROVINCETOWN     N/A     44  41  89 MISG        N/A                   
NANTUCKET      CLOUDY    46  41  82 N17       29.89S                  
MARTHAS VNYRD  CLOUDY    43  40  89 N9        29.92R                  
$$
 
MAZALL-131000-
CENTRAL AND WESTERN MASSACHUSETTS
  
CITY           SKY/WX    TMP DP  RH WIND       PRES   REMARKS
WORCESTER      CLOUDY    43  31  62 N9        29.96R                  
FITCHBURG      CLOUDY    43  35  73 NW5       29.99R                  
ORANGE         CLOUDY    36  35  96 CALM      30.00R                  
SPRINGFIELD    CLOUDY    40  34  80 CALM      29.98S                  
WESTFIELD      CLOUDY    40  36  86 N5        29.99R                  
NORTH ADAMS    CLOUDY    35  32  88 CALM      30.02R                  
PITTSFIELD     MOCLDY    35  34  96 CALM      29.98R                  
$$
 
RIZALL-131000-
RHODE ISLAND
  
CITY           SKY/WX    TMP DP  RH WIND       PRES   REMARKS
PROVIDENCE     CLOUDY    44  36  73 N9        29.96S                  
NEWPORT        CLOUDY    42  37  82 N9        29.94R                  
BLOCK ISLAND   CLOUDY    42  37  82 N10       29.94R                  
SMITHFIELD     CLOUDY    41  37  86 N7        29.96S                  
WESTERLY       CLOUDY    41  35  79 N7        29.95R                  
$$
 
CTZALL-131000-
CONNECTICUT
  
CITY           SKY/WX    TMP DP  RH WIND       PRES   REMARKS
BRADLEY INTL   CLOUDY    42  35  76 N7        29.99R                  
HARTFORD       CLOUDY    44  34  67 N7        29.99R                  
BRIDGEPORT     MOCLDY    44  36  73 N9        29.98R                  
DANBURY        PTCLDY    37  34  89 CALM      30.00R                  
GROTON         CLOUDY    43  36  76 N9        29.96R                  
NEW HAVEN      CLOUDY    44  38  79 N8        29.97S                  
CHESTER        CLOUDY    41  36  81 N7        29.96S                  
MERIDEN        CLOUDY    42  34  73 N7        29.99R                  
WILLIMANTIC    CLOUDY    41  35  79 N3        29.98R                  
OXFORD         MOCLDY    39  37  92 N8        29.98R                  
$$

MEZ002-015-021-024-NHZ003-005-008-011-012-014-VTZ005-008-131000-
NORTHERN NEW ENGLAND
  
CITY           SKY/WX    TMP DP  RH WIND       PRES   REMARKS
PORTLAND ME    CLEAR     42  36  79 N8        29.98S                  
BANGOR ME      CLOUDY    48  36  63 N12       29.97R                  
CONCORD NH     MOCLDY    38  34  85 CALM      30.00R                  
MANCHESTER NH  CLOUDY    43  34  70 N7        29.98R                  
NASHUA NH      CLOUDY    41  37  86 NW6       30.00R                  
PORTSMOUTH NH  PTCLDY    44  35  71 N7        29.99R                  
JAFFREY NH     CLOUDY    36  33  89 CALM      29.98S                  
KEENE NH       CLOUDY    34  34 100 CALM      30.01S                  
BURLINGTON VT  CLEAR     42  36  79 NE3       30.02R                  
MT. WASHINGTON FOG       32  32 100 E37         N/A  VSB 1/16WCI  16  
$$

NYZ052-076-131000-
EASTERN NEW YORK
  
CITY           SKY/WX    TMP DP  RH WIND       PRES   REMARKS
ALBANY         PTCLDY    35  35 100 CALM      30.02R                  
NEW YORK CITY  MOCLDY    46  38  73 N6        29.97R                  
$$
 
ANZALL-131000-
MARINE OBSERVATIONS
  
STATION/POSITION TIME  TEMP    WIND        PRES    VSBY  WAVE
                       AIR SEA DIR/SP/G                  HT/PER
                 (UTC) (F)     (DEG/KT/KT) (MB)    (MI)  (FT/S)
BOSTON BUOY      0840   43 44  330/ 12/ 14 1014.8R
BUZZARDS BAY     0800          360/ 15/ 16 1014.2R
NANTUCKET SOUND  0840      47                N/A
MASS BAY-STELLWA 0804   45      10/ 12/ 14 1012.9R  1 7/8  4/ 6
ISLE OF SHOALS   0800   45      10/ 13/ 14 1014.2R
S OF BLOCK IS    0826      44                N/A           5/ 7
$$

......................KEY.........................
  SKY/WX - SKY CONDITION/PRESENT WEATHER
  TMP    - TEMPERATURE IN FAHRENHEIT
  DWPT   - DEWPOINT IN FAHRENHEIT
  RH     - RELATIVE HUMIDITY IN PERCENT
  WIND   - DIRECTION AND SPEED IN MPH
  PRES   - MEAN SEA LEVEL PRESSURE IN INCHES OF HG
  WCI    - WIND CHILL INDEX
  VSB    - VISIBILITY IN MILES
  HX     - HEAT INDEX
  TC     - TEMPERATURE IN CELSIUS
  VRB    - VARIABLE WIND DIRECTION
  N/A    - NOT AVAILABLE
  
      

Other recent Regional Weather Roundups

Fri Apr 16, 9:04am

Fri Apr 16, 8:04am

Fri Apr 16, 7:04am

Fri Apr 16, 6:04am

Fri Apr 16, 5:04am

Fri Apr 16, 4:04am

Fri Apr 16, 3:04am

Fri Apr 16, 2:04am

Fri Apr 16, 1:04am

Fri Apr 16, 12:04am

Thu Apr 15, 11:05pm

Thu Apr 15, 10:04pm

Thu Apr 15, 9:04pm

Thu Apr 15, 8:04pm

Thu Apr 15, 7:05pm

Thu Apr 15, 6:04pm

Thu Apr 15, 5:05pm

Thu Apr 15, 4:04pm

Thu Apr 15, 3:05pm

Thu Apr 15, 2:04pm

Thu Apr 15, 1:05pm

Thu Apr 15, 12:04pm

Thu Apr 15, 11:04am

Thu Apr 15, 10:05am

Thu Apr 15, 9:04am

Thu Apr 15, 8:04am

Thu Apr 15, 7:04am

Thu Apr 15, 6:04am

Thu Apr 15, 5:04am

Thu Apr 15, 4:04am

Thu Apr 15, 3:04am

Thu Apr 15, 2:04am

Thu Apr 15, 1:04am

Thu Apr 15, 12:04am

Wed Apr 14, 11:04pm

Wed Apr 14, 10:04pm

Wed Apr 14, 9:04pm

Wed Apr 14, 8:04pm

Wed Apr 14, 7:04pm

Wed Apr 14, 6:04pm

Wed Apr 14, 5:05pm

Wed Apr 14, 4:04pm

Wed Apr 14, 3:05pm

Wed Apr 14, 2:04pm

Wed Apr 14, 1:05pm

Wed Apr 14, 12:04pm

Wed Apr 14, 11:04am

Wed Apr 14, 10:04am

Wed Apr 14, 9:04am

Wed Apr 14, 8:04am

Wed Apr 14, 7:04am

Wed Apr 14, 6:04am

Wed Apr 14, 5:04am

Wed Apr 14, 4:04am

Wed Apr 14, 3:04am

Wed Apr 14, 2:04am

Wed Apr 14, 1:04am

Wed Apr 14, 12:04am

Tue Apr 13, 11:04pm

Tue Apr 13, 10:05pm

Tue Apr 13, 9:05pm

Tue Apr 13, 8:05pm

Tue Apr 13, 7:04pm

Tue Apr 13, 6:04pm

Tue Apr 13, 5:05pm

Tue Apr 13, 4:04pm

Tue Apr 13, 3:04pm

Tue Apr 13, 2:05pm

Tue Apr 13, 1:04pm

Tue Apr 13, 12:05pm

Tue Apr 13, 11:05am

Tue Apr 13, 10:04am

Tue Apr 13, 9:04am

Tue Apr 13, 8:04am

Tue Apr 13, 7:04am

Tue Apr 13, 6:04am

Tue Apr 13, 4:04am

Tue Apr 13, 3:04am

Tue Apr 13, 2:04am

Tue Apr 13, 1:04am

Tue Apr 13, 12:05am

Mon Apr 12, 11:04pm

Mon Apr 12, 10:04pm

Mon Apr 12, 9:04pm

Mon Apr 12, 8:04pm

Mon Apr 12, 7:05pm

Mon Apr 12, 6:04pm

Mon Apr 12, 5:04pm

Mon Apr 12, 4:04pm

Mon Apr 12, 3:05pm

Mon Apr 12, 2:04pm

Mon Apr 12, 1:05pm

Mon Apr 12, 12:04pm

Mon Apr 12, 11:04am

Mon Apr 12, 10:04am

Mon Apr 12, 9:04am

Mon Apr 12, 8:04am

Mon Apr 12, 7:04am

Mon Apr 12, 6:04am

Mon Apr 12, 5:04am

Mon Apr 12, 4:04am

Mon Apr 12, 3:04am

Mon Apr 12, 2:04am

Mon Apr 12, 1:05am

Mon Apr 12, 12:04am

Sun Apr 11, 11:04pm

Sun Apr 11, 10:04pm

Sun Apr 11, 9:04pm

Sun Apr 11, 8:04pm

Sun Apr 11, 7:04pm

Sun Apr 11, 6:05pm

Sun Apr 11, 5:05pm

Sun Apr 11, 4:04pm

Sun Apr 11, 3:05pm

Sun Apr 11, 2:05pm

Sun Apr 11, 1:05pm

Sun Apr 11, 12:04pm

Sun Apr 11, 11:05am

Sun Apr 11, 10:05am

Sun Apr 11, 9:04am

Sun Apr 11, 8:04am

Sun Apr 11, 7:04am

Sun Apr 11, 6:04am

Sun Apr 11, 5:04am

Sun Apr 11, 4:04am

Sun Apr 11, 3:04am

Sun Apr 11, 2:04am

Sun Apr 11, 1:05am

Sun Apr 11, 12:04am

Sat Apr 10, 11:05pm

Sat Apr 10, 10:04pm

Sat Apr 10, 9:04pm

Sat Apr 10, 8:04pm

Sat Apr 10, 7:05pm

Sat Apr 10, 6:04pm

Sat Apr 10, 5:04pm

Sat Apr 10, 4:04pm

Sat Apr 10, 3:04pm

Sat Apr 10, 2:05pm

Sat Apr 10, 1:04pm

Sat Apr 10, 12:04pm

Sat Apr 10, 11:04am

Sat Apr 10, 10:04am

Sat Apr 10, 9:04am

Sat Apr 10, 8:04am

Sat Apr 10, 7:04am

Sat Apr 10, 6:04am

Sat Apr 10, 5:04am

Sat Apr 10, 4:04am

Sat Apr 10, 3:04am

Sat Apr 10, 2:04am

Sat Apr 10, 1:05am

Sat Apr 10, 12:04am

Fri Apr 9, 11:04pm

Fri Apr 9, 10:05pm

Fri Apr 9, 9:04pm

Fri Apr 9, 8:05pm

Fri Apr 9, 7:05pm

Fri Apr 9, 6:04pm

Fri Apr 9, 5:04pm

Fri Apr 9, 4:05pm

Fri Apr 9, 3:05pm

Fri Apr 9, 2:04pm

Fri Apr 9, 1:04pm

Fri Apr 9, 12:04pm

Fri Apr 9, 11:05am

Fri Apr 9, 10:04am

Meta data:

ID: 0365d4ed-1ebd-4792-8b05-cdb6ca1ff9e8
Link: https://api.weather.gov/products/0365d4ed-1ebd-4792-8b05-cdb6ca1ff9e8